Regional Weather Roundup
Issued by NWS

Home | Current Version | Previous Version | Graphics & Text | Print | Product List | Glossary On
Versions: 1 2 3 4 5 6 7 8 9 10 11 12 13 14 15 16 17 18 19 20 21 22 23 24 25 26 27 28 29 30 31 32 33 34 35 36 37 38 39 40 41 42 43 44 45 46 47 48 49 50
000
ASUS43 KBIS 230510
RWRND

NORTH DAKOTA REGIONAL WEATHER ROUNDUP
NATIONAL WEATHER SERVICE BISMARCK ND
1200 AM CDT TUE MAY 23 2017

NOTE: "FAIR" INDICATES FEW OR NO CLOUDS BELOW 12,000 FEET WITH NO
SIGNIFICANT WEATHER AND/OR OBSTRUCTIONS TO VISIBILITY.


NDZ001>003-009>011-017-230600-
NORTHWEST NORTH DAKOTA

CITY           SKY/WX    TMP DP  RH WIND       PRES   REMARKS
WILLISTON      FAIR      47  36  65 NE5       30.14R
MINOT          CLOUDY    50  38  63 NW7       30.09R
MINOT AFB      PTCLDY    42  35  79 NW9       30.09R
$$

NDZ018>021-031>035-040>046-230600-
SOUTHWEST NORTH DAKOTA

CITY           SKY/WX    TMP DP  RH WIND       PRES   REMARKS
BISMARCK       CLOUDY    53  40  61 N12       30.07R
DICKINSON      CLOUDY    51  33  50 N10       30.10R
GARRISON         N/A     47  37  68 N8        30.09R
HETTINGER ARPT CLOUDY    51  37  58 NW8       30.10R
$$

NDZ004>008-012>016-024-026-027-054-230600-
NORTHEAST NORTH DAKOTA

CITY           SKY/WX    TMP DP  RH WIND       PRES   REMARKS
GRAND FORKS    CLOUDY    50  47  89 N14       29.93R
GRND FRKS AFB  CLOUDY    48  46  93 N10       29.95R
DEVILS LAKE    CLOUDY    49  42  77 N15       30.01S
$$

NDZ022-023-025-028>030-036>039-047>053-230600-
SOUTHEAST NORTH DAKOTA

CITY           SKY/WX    TMP DP  RH WIND       PRES   REMARKS
FARGO          CLOUDY    49  47  93 N13       29.90S
JAMESTOWN      LGT RAIN  47  43  86 N18       29.97S
$$





USA.gov is the U.S. government's official web portal to all federal, state and local government web resources and services.